Year,Month,Day,Hour,Minute,Value (Times are PST for temperature in C)
2020,03,30,00,00,7.50
2020,03,30,00,01,7.50
2020,03,30,00,02,7.50
2020,03,30,00,03,7.50
2020,03,30,00,04,7.50
2020,03,30,00,05,7.50
2020,03,30,00,06,7.40
2020,03,30,00,07,7.40
2020,03,30,00,08,7.40
2020,03,30,00,09,7.40
2020,03,30,00,10,7.40
2020,03,30,00,11,7.40
2020,03,30,00,12,7.40
2020,03,30,00,13,7.40
2020,03,30,00,14,7.40
2020,03,30,00,15,7.40
2020,03,30,00,16,7.40
2020,03,30,00,17,7.40
2020,03,30,00,18,7.40
2020,03,30,00,19,7.40
2020,03,30,00,20,7.40
2020,03,30,00,21,7.40
2020,03,30,00,22,7.40
2020,03,30,00,23,7.30
2020,03,30,00,24,7.30
2020,03,30,00,25,7.30
2020,03,30,00,26,7.30
2020,03,30,00,27,7.30
2020,03,30,00,28,7.30
2020,03,30,00,29,7.30
2020,03,30,00,30,7.20
2020,03,30,00,31,7.20
2020,03,30,00,32,7.20
2020,03,30,00,33,7.20
2020,03,30,00,34,7.20
2020,03,30,00,35,7.20
2020,03,30,00,36,7.20
2020,03,30,00,37,7.20
2020,03,30,00,38,7.20
2020,03,30,00,39,7.30
2020,03,30,00,40,7.30
2020,03,30,00,41,7.20
2020,03,30,00,42,7.20
2020,03,30,00,43,7.20
2020,03,30,00,44,7.20
2020,03,30,00,45,7.10
2020,03,30,00,46,7.10
2020,03,30,00,47,7.10
2020,03,30,00,48,7.10
2020,03,30,00,49,7.10
2020,03,30,00,50,7.10
2020,03,30,00,51,7.00
2020,03,30,00,52,7.00
2020,03,30,00,53,7.00
2020,03,30,00,54,7.00
2020,03,30,00,55,7.00
2020,03,30,00,56,7.00
2020,03,30,00,57,7.00
2020,03,30,00,58,7.00
2020,03,30,00,59,7.00
2020,03,30,01,00,7.00
2020,03,30,01,01,7.00
2020,03,30,01,02,7.00
2020,03,30,01,03,7.00
2020,03,30,01,04,7.00
2020,03,30,01,05,7.00
2020,03,30,01,06,7.00
2020,03,30,01,07,7.10
2020,03,30,01,08,7.10
2020,03,30,01,09,7.10
2020,03,30,01,10,7.10
2020,03,30,01,11,7.20
2020,03,30,01,12,7.20
2020,03,30,01,13,7.20
2020,03,30,01,14,7.20
2020,03,30,01,15,7.10
2020,03,30,01,16,7.10
2020,03,30,01,17,7.10
2020,03,30,01,18,7.10
2020,03,30,01,19,7.10
2020,03,30,01,20,7.10
2020,03,30,01,21,7.10
2020,03,30,01,22,7.10
2020,03,30,01,23,7.10
2020,03,30,01,24,7.10
2020,03,30,01,25,7.10
2020,03,30,01,26,7.20
2020,03,30,01,27,7.20
2020,03,30,01,28,7.30
2020,03,30,01,29,7.30
2020,03,30,01,30,7.30
2020,03,30,01,31,7.30
2020,03,30,01,32,7.30
2020,03,30,01,33,7.40
2020,03,30,01,34,7.30
2020,03,30,01,35,7.30
2020,03,30,01,36,7.30
2020,03,30,01,37,7.30
2020,03,30,01,38,7.30
2020,03,30,01,39,7.30
2020,03,30,01,40,7.30
2020,03,30,01,41,7.20
2020,03,30,01,42,7.20
2020,03,30,01,43,7.20
2020,03,30,01,44,7.20
2020,03,30,01,45,7.20
2020,03,30,01,46,7.20
2020,03,30,01,47,7.10
2020,03,30,01,48,7.10
2020,03,30,01,49,7.10
2020,03,30,01,50,7.10
2020,03,30,01,51,7.20
2020,03,30,01,52,7.20
2020,03,30,01,53,7.20
2020,03,30,01,54,7.30
2020,03,30,01,55,7.40
2020,03,30,01,56,7.40
2020,03,30,01,57,7.50
2020,03,30,01,58,7.50
2020,03,30,01,59,7.60
2020,03,30,02,00,7.60
2020,03,30,02,01,7.60
2020,03,30,02,02,7.70
2020,03,30,02,03,7.70
2020,03,30,02,04,7.70
2020,03,30,02,05,7.70
2020,03,30,02,06,7.70
2020,03,30,02,07,7.70
2020,03,30,02,08,7.70
2020,03,30,02,09,7.70
2020,03,30,02,10,7.70
2020,03,30,02,11,7.60
2020,03,30,02,12,7.60
2020,03,30,02,13,7.60
2020,03,30,02,14,7.60
2020,03,30,02,15,7.50
2020,03,30,02,16,7.50
2020,03,30,02,17,7.50
2020,03,30,02,18,7.50
2020,03,30,02,19,7.60
2020,03,30,02,20,7.60
2020,03,30,02,21,7.60
2020,03,30,02,22,7.70
2020,03,30,02,23,7.80
2020,03,30,02,24,7.80
2020,03,30,02,25,7.80
2020,03,30,02,26,7.80
2020,03,30,02,27,7.80
2020,03,30,02,28,7.80
2020,03,30,02,29,7.80
2020,03,30,02,30,7.80
2020,03,30,02,31,7.80
2020,03,30,02,32,7.80
2020,03,30,02,33,7.70
2020,03,30,02,34,7.70
2020,03,30,02,35,7.60
2020,03,30,02,36,7.60
2020,03,30,02,37,7.60
2020,03,30,02,38,7.60
2020,03,30,02,39,7.60
2020,03,30,02,40,7.50
2020,03,30,02,41,7.50
2020,03,30,02,42,7.40
2020,03,30,02,43,7.40
2020,03,30,02,44,7.40
2020,03,30,02,45,7.30
2020,03,30,02,46,7.30
2020,03,30,02,47,7.20
2020,03,30,02,48,7.20
2020,03,30,02,49,7.20
2020,03,30,02,50,7.10
2020,03,30,02,51,7.10
2020,03,30,02,52,7.00
2020,03,30,02,53,7.00
2020,03,30,02,54,6.90
2020,03,30,02,55,6.90
2020,03,30,02,56,6.90
2020,03,30,02,57,6.90
2020,03,30,02,58,6.90
2020,03,30,02,59,6.90
2020,03,30,03,00,6.90
2020,03,30,03,01,6.80
2020,03,30,03,02,6.80
2020,03,30,03,03,6.80
2020,03,30,03,04,6.80
2020,03,30,03,05,6.70
2020,03,30,03,06,6.70
2020,03,30,03,07,6.60
2020,03,30,03,08,6.60
2020,03,30,03,09,6.60
2020,03,30,03,10,6.50
2020,03,30,03,11,6.50
2020,03,30,03,12,6.40
2020,03,30,03,13,6.40
2020,03,30,03,14,6.50
2020,03,30,03,15,6.40
2020,03,30,03,16,6.40
2020,03,30,03,17,6.50
2020,03,30,03,18,6.40
2020,03,30,03,19,6.40
2020,03,30,03,20,6.40
2020,03,30,03,21,6.40
2020,03,30,03,22,6.40
2020,03,30,03,23,6.40
2020,03,30,03,24,6.30
2020,03,30,03,25,6.30
2020,03,30,03,26,6.30
2020,03,30,03,27,6.30
2020,03,30,03,28,6.20
2020,03,30,03,29,6.10
2020,03,30,03,30,6.00
2020,03,30,03,31,6.00
2020,03,30,03,32,5.90
2020,03,30,03,33,5.80
2020,03,30,03,34,5.70
2020,03,30,03,35,5.70
2020,03,30,03,36,5.60
2020,03,30,03,37,5.50
2020,03,30,03,38,5.50
2020,03,30,03,39,5.40
2020,03,30,03,40,5.40
2020,03,30,03,41,5.40
2020,03,30,03,42,5.30
2020,03,30,03,43,5.30
2020,03,30,03,44,5.30
2020,03,30,03,45,5.30
2020,03,30,03,46,5.30
2020,03,30,03,47,5.30
2020,03,30,03,48,5.20
2020,03,30,03,49,5.20
2020,03,30,03,50,5.20
2020,03,30,03,51,5.10
2020,03,30,03,52,5.10
2020,03,30,03,53,5.10
2020,03,30,03,54,5.10
2020,03,30,03,55,5.10
2020,03,30,03,56,5.10
2020,03,30,03,57,5.10
2020,03,30,03,58,5.10
2020,03,30,03,59,5.10
2020,03,30,04,00,5.10
2020,03,30,04,01,5.10
2020,03,30,04,02,5.10
2020,03,30,04,03,5.00
2020,03,30,04,04,5.00
2020,03,30,04,05,5.00
2020,03,30,04,06,5.00
2020,03,30,04,07,5.00
2020,03,30,04,08,5.00
2020,03,30,04,09,5.00
2020,03,30,04,10,5.00
2020,03,30,04,11,5.00
2020,03,30,04,12,5.00
2020,03,30,04,13,5.00
2020,03,30,04,14,5.00
2020,03,30,04,15,5.00
2020,03,30,04,16,5.00
2020,03,30,04,17,5.00
2020,03,30,04,18,5.00
2020,03,30,04,19,5.00
2020,03,30,04,20,5.00
2020,03,30,04,21,5.00
2020,03,30,04,22,5.00
2020,03,30,04,23,5.00
2020,03,30,04,24,4.90
2020,03,30,04,25,4.90
2020,03,30,04,26,4.90
2020,03,30,04,27,4.90
2020,03,30,04,28,4.90
2020,03,30,04,29,4.90
2020,03,30,04,30,4.90
2020,03,30,04,31,4.90
2020,03,30,04,32,4.90
2020,03,30,04,33,4.90
2020,03,30,04,34,4.90
2020,03,30,04,35,4.90
2020,03,30,04,36,4.90
2020,03,30,04,37,4.90
2020,03,30,04,38,4.90
2020,03,30,04,39,4.90
2020,03,30,04,40,4.90
2020,03,30,04,41,4.90
2020,03,30,04,42,4.90
2020,03,30,04,43,4.90
2020,03,30,04,44,4.90
2020,03,30,04,45,5.00
2020,03,30,04,46,5.00
2020,03,30,04,47,5.00
2020,03,30,04,48,5.00
2020,03,30,04,49,5.00
2020,03,30,04,50,5.00
2020,03,30,04,51,4.90
2020,03,30,04,52,4.90
2020,03,30,04,53,4.90
2020,03,30,04,54,4.90
2020,03,30,04,55,4.90
2020,03,30,04,56,4.90
2020,03,30,04,57,4.90
2020,03,30,04,58,4.90
2020,03,30,04,59,4.90
2020,03,30,05,00,4.90
2020,03,30,05,01,4.80
2020,03,30,05,02,4.80
2020,03,30,05,03,4.80
2020,03,30,05,04,4.80
2020,03,30,05,05,4.80
2020,03,30,05,06,4.70
2020,03,30,05,07,4.70
2020,03,30,05,08,4.70
2020,03,30,05,09,4.70
2020,03,30,05,10,4.70
2020,03,30,05,11,4.70
2020,03,30,05,12,4.70
2020,03,30,05,13,4.70
2020,03,30,05,14,4.70
2020,03,30,05,15,4.70
2020,03,30,05,16,4.70
2020,03,30,05,17,4.70
2020,03,30,05,18,4.70
2020,03,30,05,19,4.70
2020,03,30,05,20,4.60
2020,03,30,05,21,4.60
2020,03,30,05,22,4.60
2020,03,30,05,23,4.60
2020,03,30,05,24,4.50
2020,03,30,05,25,4.50
2020,03,30,05,26,4.50
2020,03,30,05,27,4.50
2020,03,30,05,28,4.50
2020,03,30,05,29,4.50
2020,03,30,05,30,4.40
2020,03,30,05,31,4.40
2020,03,30,05,32,4.40
2020,03,30,05,33,4.40
2020,03,30,05,34,4.40
2020,03,30,05,35,4.40
2020,03,30,05,36,4.40
2020,03,30,05,37,4.40
2020,03,30,05,38,4.40
2020,03,30,05,39,4.40
2020,03,30,05,40,4.40
2020,03,30,05,41,4.40
2020,03,30,05,42,4.30
2020,03,30,05,43,4.30
2020,03,30,05,44,4.30
2020,03,30,05,45,4.30
2020,03,30,05,46,4.20
2020,03,30,05,47,4.20
2020,03,30,05,48,4.20
2020,03,30,05,49,4.20
2020,03,30,05,50,4.20
2020,03,30,05,51,4.20
2020,03,30,05,52,4.10
2020,03,30,05,53,4.10
2020,03,30,05,54,4.10
2020,03,30,05,55,4.10
2020,03,30,05,56,4.10
2020,03,30,05,57,4.10
2020,03,30,05,58,4.10
2020,03,30,05,59,4.00
2020,03,30,06,00,4.00
2020,03,30,06,01,4.00
2020,03,30,06,02,4.00
2020,03,30,06,03,4.00
2020,03,30,06,04,4.00
2020,03,30,06,05,4.00
2020,03,30,06,06,4.00
2020,03,30,06,07,3.90
2020,03,30,06,08,4.00
2020,03,30,06,09,3.90
2020,03,30,06,10,3.90
2020,03,30,06,11,3.90
2020,03,30,06,12,3.90
2020,03,30,06,13,3.90
2020,03,30,06,14,3.90
2020,03,30,06,15,3.90
2020,03,30,06,16,3.80
2020,03,30,06,17,3.80
2020,03,30,06,18,3.80
2020,03,30,06,19,3.80
2020,03,30,06,20,3.80
2020,03,30,06,21,3.70
2020,03,30,06,22,3.70
2020,03,30,06,23,3.70
2020,03,30,06,24,3.70
2020,03,30,06,25,3.70
2020,03,30,06,26,3.70
2020,03,30,06,27,3.70
2020,03,30,06,28,3.70
2020,03,30,06,29,3.70
2020,03,30,06,30,3.70
2020,03,30,06,31,3.70
2020,03,30,06,32,3.80
2020,03,30,06,33,3.80
2020,03,30,06,34,3.80
2020,03,30,06,35,3.80
2020,03,30,06,36,3.80
2020,03,30,06,37,3.80
2020,03,30,06,38,3.80
2020,03,30,06,39,3.80
2020,03,30,06,40,3.80
2020,03,30,06,41,3.80
2020,03,30,06,42,3.70
2020,03,30,06,43,3.80
2020,03,30,06,44,3.70
2020,03,30,06,45,3.70
2020,03,30,06,46,3.70
2020,03,30,06,47,3.70
2020,03,30,06,48,3.70
2020,03,30,06,49,3.80
2020,03,30,06,50,3.80
2020,03,30,06,51,3.80
2020,03,30,06,52,3.80
2020,03,30,06,53,3.70
2020,03,30,06,54,3.70
2020,03,30,06,55,3.70
2020,03,30,06,56,3.70
2020,03,30,06,57,3.70
2020,03,30,06,58,3.60
2020,03,30,06,59,3.60
2020,03,30,07,00,3.60
2020,03,30,07,01,3.60
2020,03,30,07,02,3.60
2020,03,30,07,03,3.60
2020,03,30,07,04,3.60
2020,03,30,07,05,3.50
2020,03,30,07,06,3.50
2020,03,30,07,07,3.50
2020,03,30,07,08,3.50
2020,03,30,07,09,3.50
2020,03,30,07,10,3.50
2020,03,30,07,11,3.50
2020,03,30,07,12,3.40
2020,03,30,07,13,3.40
2020,03,30,07,14,3.40
2020,03,30,07,15,3.40
2020,03,30,07,16,3.40
2020,03,30,07,17,3.30
2020,03,30,07,18,3.30
2020,03,30,07,19,3.30
2020,03,30,07,20,3.30
2020,03,30,07,21,3.30
2020,03,30,07,22,3.30
2020,03,30,07,23,3.30
2020,03,30,07,24,3.30
2020,03,30,07,25,3.30
2020,03,30,07,26,3.30
2020,03,30,07,27,3.30
2020,03,30,07,28,3.30
2020,03,30,07,29,3.30
2020,03,30,07,30,3.30
2020,03,30,07,31,3.30
2020,03,30,07,32,3.30
2020,03,30,07,33,3.30
2020,03,30,07,34,3.30
2020,03,30,07,35,3.40
2020,03,30,07,36,3.30
2020,03,30,07,37,3.30
2020,03,30,07,38,3.30
2020,03,30,07,39,3.20
2020,03,30,07,40,3.20
2020,03,30,07,41,3.20
2020,03,30,07,42,3.10
2020,03,30,07,43,3.10
2020,03,30,07,44,3.00
2020,03,30,07,45,3.00
2020,03,30,07,46,3.00
2020,03,30,07,47,3.00
2020,03,30,07,48,3.00
2020,03,30,07,49,3.00
2020,03,30,07,50,3.10
2020,03,30,07,51,3.10
2020,03,30,07,52,3.10
2020,03,30,07,53,3.10
2020,03,30,07,54,3.10
2020,03,30,07,55,3.10
2020,03,30,07,56,3.10
2020,03,30,07,57,3.10
2020,03,30,07,58,3.10
2020,03,30,07,59,3.10
2020,03,30,08,00,3.10
2020,03,30,08,01,3.10
2020,03,30,08,02,3.10
2020,03,30,08,03,3.10
2020,03,30,08,04,3.10
2020,03,30,08,05,3.10
2020,03,30,08,06,3.10
2020,03,30,08,07,3.10
2020,03,30,08,08,3.10
2020,03,30,08,09,3.10
2020,03,30,08,10,3.10
2020,03,30,08,11,3.20
2020,03,30,08,12,3.10
2020,03,30,08,13,3.10
2020,03,30,08,14,3.10
2020,03,30,08,15,3.10
2020,03,30,08,16,3.10
2020,03,30,08,17,3.10
2020,03,30,08,18,3.10
2020,03,30,08,19,3.10
2020,03,30,08,20,3.10
2020,03,30,08,21,3.10
2020,03,30,08,22,3.10
2020,03,30,08,23,3.10
2020,03,30,08,24,3.10
2020,03,30,08,25,3.10
2020,03,30,08,26,3.10
2020,03,30,08,27,3.10
2020,03,30,08,28,3.10
2020,03,30,08,29,3.10
2020,03,30,08,30,3.10
2020,03,30,08,31,3.10
2020,03,30,08,32,3.10
2020,03,30,08,33,3.20
2020,03,30,08,34,3.20
2020,03,30,08,35,3.20
2020,03,30,08,36,3.20
2020,03,30,08,37,3.20
2020,03,30,08,38,3.20
2020,03,30,08,39,3.20
2020,03,30,08,40,3.30
2020,03,30,08,41,3.30
2020,03,30,08,42,3.30
2020,03,30,08,43,3.40
2020,03,30,08,44,3.40
2020,03,30,08,45,3.40
2020,03,30,08,46,3.40
2020,03,30,08,47,3.40
2020,03,30,08,48,3.40
2020,03,30,08,49,3.40
2020,03,30,08,50,3.40
2020,03,30,08,51,3.40
2020,03,30,08,52,3.40
2020,03,30,08,53,3.50
2020,03,30,08,54,3.50
2020,03,30,08,55,3.50
2020,03,30,08,56,3.60
2020,03,30,08,57,3.60
2020,03,30,08,58,3.60
2020,03,30,08,59,3.60
2020,03,30,09,00,3.60
2020,03,30,09,01,3.60
2020,03,30,09,02,3.60
2020,03,30,09,03,3.60
2020,03,30,09,04,3.70
2020,03,30,09,05,3.70
2020,03,30,09,06,3.80
2020,03,30,09,07,3.80
2020,03,30,09,08,3.80
2020,03,30,09,09,3.80
2020,03,30,09,10,3.80
2020,03,30,09,11,3.90
2020,03,30,09,12,3.90
2020,03,30,09,13,3.90
2020,03,30,09,14,3.90
2020,03,30,09,15,4.00
2020,03,30,09,16,4.00
2020,03,30,09,17,4.00
2020,03,30,09,18,4.10
2020,03,30,09,19,4.10
2020,03,30,09,20,4.20
2020,03,30,09,21,4.20
2020,03,30,09,22,4.20
2020,03,30,09,23,4.20
2020,03,30,09,24,4.30
2020,03,30,09,25,4.30
2020,03,30,09,26,4.30
2020,03,30,09,27,4.30
2020,03,30,09,28,4.30
2020,03,30,09,29,4.30
2020,03,30,09,30,4.30
2020,03,30,09,31,4.40
2020,03,30,09,32,4.40
2020,03,30,09,33,4.40
2020,03,30,09,34,4.40
2020,03,30,09,35,4.40
2020,03,30,09,36,4.40
2020,03,30,09,37,4.40
2020,03,30,09,38,4.40
2020,03,30,09,39,4.40
2020,03,30,09,40,4.40
2020,03,30,09,41,4.50
2020,03,30,09,42,4.50
2020,03,30,09,43,4.60
2020,03,30,09,44,4.60
2020,03,30,09,45,4.70
2020,03,30,09,46,4.70
2020,03,30,09,47,4.80
2020,03,30,09,48,4.80
2020,03,30,09,49,4.90
2020,03,30,09,50,4.90
2020,03,30,09,51,5.00
2020,03,30,09,52,5.00
2020,03,30,09,53,5.10
2020,03,30,09,54,5.10
2020,03,30,09,55,5.20
2020,03,30,09,56,5.20
2020,03,30,09,57,5.30
2020,03,30,09,58,5.30
2020,03,30,09,59,5.40
2020,03,30,10,00,5.50
2020,03,30,10,01,5.50
2020,03,30,10,02,5.60
2020,03,30,10,03,5.60
2020,03,30,10,04,5.60
2020,03,30,10,05,5.70
2020,03,30,10,06,5.70
2020,03,30,10,07,5.70
2020,03,30,10,08,5.80
2020,03,30,10,09,5.90
2020,03,30,10,10,6.00
2020,03,30,10,11,6.00
2020,03,30,10,12,6.00
2020,03,30,10,13,6.10
2020,03,30,10,14,6.20
2020,03,30,10,15,6.20
2020,03,30,10,16,6.30
2020,03,30,10,17,6.30
2020,03,30,10,18,6.40
2020,03,30,10,19,6.40
2020,03,30,10,20,6.50
2020,03,30,10,21,6.50
2020,03,30,10,22,6.50
2020,03,30,10,23,6.60
2020,03,30,10,24,6.70
2020,03,30,10,25,6.70
2020,03,30,10,26,6.70
2020,03,30,10,27,6.70
2020,03,30,10,28,6.80
2020,03,30,10,29,6.80
2020,03,30,10,30,6.80
2020,03,30,10,31,6.80
2020,03,30,10,32,6.80
2020,03,30,10,33,6.80
2020,03,30,10,34,6.90
2020,03,30,10,35,6.90
2020,03,30,10,36,6.90
2020,03,30,10,37,6.80
2020,03,30,10,38,6.90
2020,03,30,10,39,6.90
2020,03,30,10,40,6.90
2020,03,30,10,41,6.90
2020,03,30,10,42,6.90
2020,03,30,10,43,6.90
2020,03,30,10,44,6.90
2020,03,30,10,45,6.80
2020,03,30,10,46,6.80
2020,03,30,10,47,6.80
2020,03,30,10,48,6.70
2020,03,30,10,49,6.80
2020,03,30,10,50,6.80
2020,03,30,10,51,6.80
2020,03,30,10,52,6.80
2020,03,30,10,53,6.80
2020,03,30,10,54,6.90
2020,03,30,10,55,7.00
2020,03,30,10,56,7.10
2020,03,30,10,57,7.10
2020,03,30,10,58,7.20
2020,03,30,10,59,7.30
2020,03,30,11,00,7.40
2020,03,30,11,01,7.50
2020,03,30,11,02,7.60
2020,03,30,11,03,7.60
2020,03,30,11,04,7.60
2020,03,30,11,05,7.60
2020,03,30,11,06,7.60
2020,03,30,11,07,7.70
2020,03,30,11,08,7.70
2020,03,30,11,09,7.70
2020,03,30,11,10,7.80
2020,03,30,11,11,7.80
2020,03,30,11,12,7.70
2020,03,30,11,13,7.80
2020,03,30,11,14,7.80
2020,03,30,11,15,7.80
2020,03,30,11,16,7.80
2020,03,30,11,17,7.80
2020,03,30,11,18,7.70
2020,03,30,11,19,7.80
2020,03,30,11,20,7.80
2020,03,30,11,21,7.80
2020,03,30,11,22,7.80
2020,03,30,11,23,7.80
2020,03,30,11,24,7.80
2020,03,30,11,25,7.70
2020,03,30,11,26,7.70
2020,03,30,11,27,7.60
2020,03,30,11,28,7.60
2020,03,30,11,29,7.60
2020,03,30,11,30,7.60
2020,03,30,11,31,7.60
2020,03,30,11,32,7.60
2020,03,30,11,33,7.60
2020,03,30,11,34,7.60
2020,03,30,11,35,7.70
2020,03,30,11,36,7.80
2020,03,30,11,37,7.90
2020,03,30,11,38,8.00
2020,03,30,11,39,8.10
2020,03,30,11,40,8.10
2020,03,30,11,41,8.20
2020,03,30,11,42,8.20
2020,03,30,11,43,8.20
2020,03,30,11,44,8.30
2020,03,30,11,45,8.40
2020,03,30,11,46,8.60
2020,03,30,11,47,8.60
2020,03,30,11,48,8.60
2020,03,30,11,49,8.60
2020,03,30,11,50,8.60
2020,03,30,11,51,8.60
2020,03,30,11,52,8.60
2020,03,30,11,53,8.60
2020,03,30,11,54,8.70
2020,03,30,11,55,8.70
2020,03,30,11,56,8.70
2020,03,30,11,57,8.70
2020,03,30,11,58,8.70
2020,03,30,11,59,8.80
2020,03,30,12,00,8.70
2020,03,30,12,01,8.80
2020,03,30,12,02,8.80
2020,03,30,12,03,8.90
2020,03,30,12,04,8.90
2020,03,30,12,05,9.00
2020,03,30,12,06,9.00
2020,03,30,12,07,8.90
2020,03,30,12,08,8.90
2020,03,30,12,09,8.80
2020,03,30,12,10,8.80
2020,03,30,12,11,8.80
2020,03,30,12,12,8.80
2020,03,30,12,13,8.70
2020,03,30,12,14,8.70
2020,03,30,12,15,8.60
2020,03,30,12,16,8.50
2020,03,30,12,17,8.60
2020,03,30,12,18,8.60
2020,03,30,12,19,8.60
2020,03,30,12,20,8.70
2020,03,30,12,21,8.70
2020,03,30,12,22,8.70
2020,03,30,12,23,8.80
2020,03,30,12,24,8.80
2020,03,30,12,25,8.80
2020,03,30,12,26,8.80
2020,03,30,12,27,8.80
2020,03,30,12,28,8.80
2020,03,30,12,29,8.80
2020,03,30,12,30,8.90
2020,03,30,12,31,8.90
2020,03,30,12,32,8.90
2020,03,30,12,33,8.90
2020,03,30,12,34,8.90
2020,03,30,12,35,8.90
2020,03,30,12,36,8.90
2020,03,30,12,37,9.00
2020,03,30,12,38,9.00
2020,03,30,12,39,9.00
2020,03,30,12,40,9.00
2020,03,30,12,41,9.00
2020,03,30,12,42,8.90
2020,03,30,12,43,8.90
2020,03,30,12,44,8.90
2020,03,30,12,45,8.90
2020,03,30,12,46,8.90
2020,03,30,12,47,8.90
2020,03,30,12,48,8.90
2020,03,30,12,49,9.00
2020,03,30,12,50,8.90
2020,03,30,12,51,9.00
2020,03,30,12,52,9.10
2020,03,30,12,53,9.10
2020,03,30,12,54,9.20
2020,03,30,12,55,9.30
2020,03,30,12,56,9.30
2020,03,30,12,57,9.30
2020,03,30,12,58,9.30
2020,03,30,12,59,9.30
2020,03,30,13,00,9.40
2020,03,30,13,01,9.40
2020,03,30,13,02,9.40
2020,03,30,13,03,9.40
2020,03,30,13,04,9.40
2020,03,30,13,05,9.50
2020,03,30,13,06,9.60
2020,03,30,13,07,9.70
2020,03,30,13,08,9.80
2020,03,30,13,09,9.80
2020,03,30,13,10,9.90
2020,03,30,13,11,9.90
2020,03,30,13,12,9.80
2020,03,30,13,13,9.80
2020,03,30,13,14,9.70
2020,03,30,13,15,9.80
2020,03,30,13,16,9.80
2020,03,30,13,17,9.80
2020,03,30,13,18,9.80
2020,03,30,13,19,9.80
2020,03,30,13,20,9.90
2020,03,30,13,21,9.90
2020,03,30,13,22,9.90
2020,03,30,13,23,9.90
2020,03,30,13,24,9.90
2020,03,30,13,25,10.00
2020,03,30,13,26,10.00
2020,03,30,13,27,10.00
2020,03,30,13,28,10.00
2020,03,30,13,29,9.90
2020,03,30,13,30,9.90
2020,03,30,13,31,9.80
2020,03,30,13,32,9.80
2020,03,30,13,33,9.80
2020,03,30,13,34,9.80
2020,03,30,13,35,9.80
2020,03,30,13,36,9.80
2020,03,30,13,37,9.80
2020,03,30,13,38,9.80
2020,03,30,13,39,9.80
2020,03,30,13,40,9.80
2020,03,30,13,41,9.80
2020,03,30,13,42,9.80
2020,03,30,13,43,9.80
2020,03,30,13,44,9.80
2020,03,30,13,45,9.70
2020,03,30,13,46,9.70
2020,03,30,13,47,9.70
2020,03,30,13,48,9.70
2020,03,30,13,49,9.70
2020,03,30,13,50,9.70
2020,03,30,13,51,9.60
2020,03,30,13,52,9.60
2020,03,30,13,53,9.60
2020,03,30,13,54,9.60
2020,03,30,13,55,9.60
2020,03,30,13,56,9.50
2020,03,30,13,57,9.50
2020,03,30,13,58,9.40
2020,03,30,13,59,9.30
2020,03,30,14,00,9.30
2020,03,30,14,01,9.30
2020,03,30,14,02,9.20
2020,03,30,14,03,9.20
2020,03,30,14,04,9.10
2020,03,30,14,05,9.10
2020,03,30,14,06,9.10
2020,03,30,14,07,9.10
2020,03,30,14,08,9.10
2020,03,30,14,09,9.10
2020,03,30,14,10,9.20
2020,03,30,14,11,9.20
2020,03,30,14,12,9.20
2020,03,30,14,13,9.20
2020,03,30,14,14,9.20
2020,03,30,14,15,9.20
2020,03,30,14,16,9.20
2020,03,30,14,17,9.10
2020,03,30,14,18,9.10
2020,03,30,14,19,9.10
2020,03,30,14,20,9.10
2020,03,30,14,21,9.10
2020,03,30,14,22,9.10
2020,03,30,14,23,9.20
2020,03,30,14,24,9.20
2020,03,30,14,25,9.20
2020,03,30,14,26,9.30
2020,03,30,14,27,9.30
2020,03,30,14,28,9.30
2020,03,30,14,29,9.30
2020,03,30,14,30,9.30
2020,03,30,14,31,9.30
2020,03,30,14,32,9.30
2020,03,30,14,33,9.30
2020,03,30,14,34,9.30
2020,03,30,14,35,9.40
2020,03,30,14,36,9.40
2020,03,30,14,37,9.30
2020,03,30,14,38,9.40
2020,03,30,14,39,9.40
2020,03,30,14,40,9.40
2020,03,30,14,41,9.40
2020,03,30,14,42,9.50
2020,03,30,14,43,9.50
2020,03,30,14,44,9.50
2020,03,30,14,45,9.60
2020,03,30,14,46,9.60
2020,03,30,14,47,9.60
2020,03,30,14,48,9.60
2020,03,30,14,49,9.60
2020,03,30,14,50,9.60
2020,03,30,14,51,9.60
2020,03,30,14,52,9.60
2020,03,30,14,53,9.70
2020,03,30,14,54,9.70
2020,03,30,14,55,9.80
2020,03,30,14,56,9.80
2020,03,30,14,57,9.70
2020,03,30,14,58,9.80
2020,03,30,14,59,9.80
2020,03,30,15,00,9.80
2020,03,30,15,01,9.80
2020,03,30,15,02,9.70
2020,03,30,15,03,9.70
2020,03,30,15,04,9.70
2020,03,30,15,05,9.60
2020,03,30,15,06,9.60
2020,03,30,15,07,9.60
2020,03,30,15,08,9.50
2020,03,30,15,09,9.50
2020,03,30,15,10,9.50
2020,03,30,15,11,9.50
2020,03,30,15,12,9.50
2020,03,30,15,13,9.50
2020,03,30,15,14,9.60
2020,03,30,15,15,9.60
2020,03,30,15,16,9.60
2020,03,30,15,17,9.70
2020,03,30,15,18,9.70
2020,03,30,15,19,9.70
2020,03,30,15,20,9.80
2020,03,30,15,21,9.80
2020,03,30,15,22,9.80
2020,03,30,15,23,9.90
2020,03,30,15,24,9.90
2020,03,30,15,25,10.00
2020,03,30,15,26,10.10
2020,03,30,15,27,10.10
2020,03,30,15,28,10.10
2020,03,30,15,29,10.00
2020,03,30,15,30,10.00
2020,03,30,15,31,9.90
2020,03,30,15,32,9.80
2020,03,30,15,33,9.70
2020,03,30,15,34,9.60
2020,03,30,15,35,9.50
2020,03,30,15,36,9.40
2020,03,30,15,37,9.30
2020,03,30,15,38,9.30
2020,03,30,15,39,9.30
2020,03,30,15,40,9.20
2020,03,30,15,41,9.20
2020,03,30,15,42,9.10
2020,03,30,15,43,9.00
2020,03,30,15,44,8.90
2020,03,30,15,45,8.90
2020,03,30,15,46,8.90
2020,03,30,15,47,8.90
2020,03,30,15,48,8.90
2020,03,30,15,49,8.90
2020,03,30,15,50,9.00
2020,03,30,15,51,9.00
2020,03,30,15,52,9.10
2020,03,30,15,53,9.10
2020,03,30,15,54,9.20
2020,03,30,15,55,9.20
2020,03,30,15,56,9.30
2020,03,30,15,57,9.30
2020,03,30,15,58,9.30
2020,03,30,15,59,9.30
2020,03,30,16,00,9.40
2020,03,30,16,01,9.40
2020,03,30,16,02,9.30
2020,03,30,16,03,9.30
2020,03,30,16,04,9.20
2020,03,30,16,05,9.20
2020,03,30,16,06,9.10
2020,03,30,16,07,9.20
2020,03,30,16,08,9.20
2020,03,30,16,09,9.20
2020,03,30,16,10,9.20
2020,03,30,16,11,9.20
2020,03,30,16,12,9.20
2020,03,30,16,13,9.20
2020,03,30,16,14,9.30
2020,03,30,16,15,9.30
2020,03,30,16,16,9.30
2020,03,30,16,17,9.30
2020,03,30,16,18,9.30
2020,03,30,16,19,9.20
2020,03,30,16,20,9.20
2020,03,30,16,21,9.20
2020,03,30,16,22,9.20
2020,03,30,16,23,9.20
2020,03,30,16,24,9.20
2020,03,30,16,25,9.30
2020,03,30,16,26,9.30
2020,03,30,16,27,9.20
2020,03,30,16,28,9.20
2020,03,30,16,29,9.20
2020,03,30,16,30,9.30
2020,03,30,16,31,9.30
2020,03,30,16,32,9.30
2020,03,30,16,33,9.30
2020,03,30,16,34,9.30
2020,03,30,16,35,9.30
2020,03,30,16,36,9.30
2020,03,30,16,37,9.30
2020,03,30,16,38,9.30
2020,03,30,16,39,9.30
2020,03,30,16,40,9.30
2020,03,30,16,41,9.40
2020,03,30,16,42,9.40
2020,03,30,16,43,9.30
2020,03,30,16,44,9.30
2020,03,30,16,45,9.30
2020,03,30,16,46,9.30
2020,03,30,16,47,9.30
2020,03,30,16,48,9.30
2020,03,30,16,49,9.30
2020,03,30,16,50,9.30
2020,03,30,16,51,9.30
2020,03,30,16,52,9.30
2020,03,30,16,53,9.40
2020,03,30,16,54,9.40
2020,03,30,16,55,9.40
2020,03,30,16,56,9.40
2020,03,30,16,57,9.40
2020,03,30,16,58,9.40
2020,03,30,16,59,9.40
2020,03,30,17,00,9.50
2020,03,30,17,01,9.50
2020,03,30,17,02,9.50
2020,03,30,17,03,9.40
2020,03,30,17,04,9.40
2020,03,30,17,05,9.40
2020,03,30,17,06,9.40
2020,03,30,17,07,9.30
2020,03,30,17,08,9.30
2020,03,30,17,09,9.30
2020,03,30,17,10,9.30
2020,03,30,17,11,9.30
2020,03,30,17,12,9.30
2020,03,30,17,13,9.20
2020,03,30,17,14,9.20
2020,03,30,17,15,9.20
2020,03,30,17,16,9.20
2020,03,30,17,17,9.20
2020,03,30,17,18,9.20
2020,03,30,17,19,9.20
2020,03,30,17,20,9.30
2020,03,30,17,21,9.30
2020,03,30,17,22,9.30
2020,03,30,17,23,9.30
2020,03,30,17,24,9.30
2020,03,30,17,25,9.30
2020,03,30,17,26,9.30
2020,03,30,17,27,9.40
2020,03,30,17,28,9.40
2020,03,30,17,29,9.40
2020,03,30,17,30,9.50
2020,03,30,17,31,9.50
2020,03,30,17,32,9.60
2020,03,30,17,33,9.60
2020,03,30,17,34,9.60
2020,03,30,17,35,9.60
2020,03,30,17,36,9.60
2020,03,30,17,37,9.60
2020,03,30,17,38,9.70
2020,03,30,17,39,9.70
2020,03,30,17,40,9.70
2020,03,30,17,41,9.70
2020,03,30,17,42,9.80
2020,03,30,17,43,9.90
2020,03,30,17,44,10.00
2020,03,30,17,45,10.10
2020,03,30,17,46,10.20
2020,03,30,17,47,10.20
2020,03,30,17,48,10.30
2020,03,30,17,49,10.30
2020,03,30,17,50,10.30
2020,03,30,17,51,10.30
2020,03,30,17,52,10.30
2020,03,30,17,53,10.30
2020,03,30,17,54,10.30
2020,03,30,17,55,10.30
2020,03,30,17,56,10.20
2020,03,30,17,57,10.30
2020,03,30,17,58,10.30
2020,03,30,17,59,10.30
2020,03,30,18,00,10.30
2020,03,30,18,01,10.40
2020,03,30,18,02,10.40
2020,03,30,18,03,10.40
2020,03,30,18,04,10.30
2020,03,30,18,05,10.30